[[[{"header":{"parameterUnit":"kt","parameterCategory":2,"dx":1,"dy":1,"la1":30.253999710083008,"la2":30.299108505249023,"lo1":-89.0895004272461,"lo2":-89.04439544677734,"nx":28,"ny":28,"refTime":"2022-10-07T21:00:00:Z","depth":0,"parameterNumber":1,"parameterNumberName":"U-component_of_WINDS"},"data":[-4.4481,-4.4454,-4.441,-4.4358,-4.431,-4.4265,-4.4235,-4.4191,-4.4144,-4.4084,-4.4041,-4.3991,-4.3924,-4.386,-4.3809,-4.3787,-4.3769,-4.3792,-4.3762,-4.3701,-4.3689,-4.3678,-4.3683,-4.3789,-4.3789,-4.3832,-4.3833,-4.3833,-4.4442,-4.4395,-4.4355,-4.4285,-4.425,-4.4202,-4.4141,-4.4114,-4.4075,-4.4016,-4.3971,-4.3913,-4.3861,-4.3783,-4.3724,-4.3708,-4.368,-4.3695,-4.3695,-4.3685,-4.3618,-4.3623,-4.3718,-4.3718,-4.3718,-4.3718,-4.3718,-4.3718,-4.4359,-4.4344,-4.4277,-4.4232,-4.4185,-4.4138,-4.4115,-4.4055,-4.4013,-4.3948,-4.3901,-4.3854,-4.3784,-4.3689,-4.3645,-4.3606,-4.358,-4.3581,-4.3581,-4.3583,-4.3591,-4.3536,-4.3593,-4.3593,-4.3592,-4.3592,-4.3592,0,-4.4284,-4.4249,-4.4206,-4.4151,-4.4116,-4.4067,-4.4015,-4.3999,-4.3904,-4.3873,-4.3823,-4.3786,-4.3712,-4.3658,-4.3592,-4.3544,-4.3487,-4.3476,-4.3476,-4.3499,-4.3528,-4.3512,-4.3405,-4.3474,-4.3473,-4.3472,-4.3471,-4.3471,-4.4197,-4.4185,-4.4091,-4.4068,-4.4028,-4.399,-4.3958,-4.3874,-4.3843,-4.3765,-4.3754,-4.37,-4.3651,-4.3576,-4.3502,-4.3445,-4.3416,-4.3448,-4.3407,-4.343,-4.3416,-4.3418,-4.3416,-4.3458,-4.3459,-4.3461,-4.3462,0,-4.4152,-4.4079,-4.4044,-4.3952,-4.3928,-4.3918,-4.3837,-4.3817,-4.376,-4.3724,-4.371,-4.3619,-4.357,-4.349,-4.3416,-4.3375,-4.3355,-4.3329,-4.3379,-4.337,-4.339,-4.3389,-4.3468,-4.3474,-4.3363,-4.3365,-4.3365,0,-4.4048,-4.4034,-4.3925,-4.3909,-4.389,-4.3807,-4.379,-4.3738,-4.3677,-4.3648,-4.3571,-4.3545,-4.3446,-4.3407,-4.3347,-4.3316,-4.3302,-4.3269,-4.3253,-4.3275,-4.328,-4.3255,-4.325,-4.3217,-4.3217,-4.3217,-4.3217,0,-4.3985,-4.3909,-4.3883,-4.3853,-4.3752,-4.374,-4.3697,-4.3627,-4.3595,-4.354,-4.3518,-4.346,-4.3428,-4.3383,-4.3307,-4.3282,-4.3267,-4.3217,-4.3232,-4.3234,-4.3232,-4.3233,-4.3325,-4.3216,-4.3216,-4.3216,-4.3216,0,-4.3889,-4.3838,-4.3811,-4.3724,-4.3707,-4.3688,-4.3626,-4.3592,-4.3523,-4.3485,-4.344,-4.3379,-4.3345,-4.3302,-4.3254,-4.3243,-4.3216,-4.318,-4.318,-4.3171,-4.3124,-4.3186,-4.3282,-4.3289,-4.3165,-4.3164,-4.3164,0,-4.3837,-4.3789,-4.3717,-4.3692,-4.3658,-4.3574,-4.3552,-4.3494,-4.344,-4.3402,-4.3341,-4.3298,-4.3248,-4.3223,-4.321,-4.3145,-4.3159,-4.3141,-4.3084,-4.3083,-4.3106,-4.3193,-4.3228,-4.327,-4.3157,-4.3158,-4.3158,0,-4.3787,-4.3664,-4.3665,-4.3627,-4.3538,-4.3508,-4.3483,-4.3422,-4.3401,-4.3343,-4.3318,-4.3254,-4.3214,-4.3173,-4.3116,-4.3106,-4.3147,-4.3064,-4.306,-4.3081,-4.3147,-4.318,-4.3187,-4.311,-4.3111,-4.3111,-4.3153,0,-4.3659,-4.3624,-4.3623,-4.3542,-4.3507,-4.3486,-4.3402,-4.3376,-4.3325,-4.3268,-4.323,-4.3158,-4.3094,-4.3081,-4.303,-4.3035,-4.3021,-4.2978,-4.2928,-4.2986,-4.2998,-4.3003,-4.2918,-4.2916,-4.2914,-4.2913,0,0,-4.3627,-4.3576,-4.3496,-4.3469,-4.3434,-4.3347,-4.3332,-4.3287,-4.3199,-4.3176,-4.3148,-4.3048,-4.2991,-4.2952,-4.2964,-4.2938,-4.293,-4.2913,-4.2959,-4.2965,-4.297,-4.2984,-4.299,-4.291,-4.2909,-4.2909,-4.2908,0,-4.3563,-4.351,-4.3497,-4.3448,-4.3372,-4.3313,-4.331,-4.3218,-4.3181,-4.3143,-4.3069,-4.3035,-4.2957,-4.2906,-4.287,-4.2916,-4.286,-4.2902,-4.2957,-4.2946,-4.2954,-4.296,-4.2976,-4.2983,-4.2904,-4.2905,-4.2905,0,-4.3498,-4.3432,-4.3417,-4.3334,-4.3283,-4.325,-4.3178,-4.3145,-4.3119,-4.3021,-4.2984,-4.2933,-4.2856,-4.2832,-4.2817,-4.279,-4.2802,-4.2782,-4.2791,-4.2787,-4.2772,-4.2781,-4.279,-4.2678,-4.2678,-4.2677,0,0,-4.3454,-4.3421,-4.3322,-4.3314,-4.3287,-4.3198,-4.3171,-4.3117,-4.3053,-4.3027,-4.2959,-4.2897,-4.285,-4.2821,-4.2773,-4.2758,-4.2734,-4.2758,-4.2769,-4.2778,-4.2779,-4.2767,-4.2776,-4.2676,-4.2676,-4.2676,0,0,-4.3431,-4.3318,-4.3278,-4.3258,-4.32,-4.31,-4.3098,-4.3046,-4.2994,-4.2987,-4.2892,-4.2871,-4.2846,-4.2797,-4.2786,-4.2753,-4.2706,-4.2707,-4.2786,-4.2798,-4.2808,-4.282,-4.27,0,0,0,0,0,-4.3322,-4.3332,-4.3298,-4.3281,-4.3175,-4.312,-4.3106,-4.3029,-4.2998,-4.2997,-4.2932,-4.2875,-4.2772,-4.276,-4.2744,-4.2757,-4.2655,-4.2659,-4.2662,-4.276,-4.2774,-4.2786,0,0,0,0,0,0,-4.3314,-4.3295,-4.3297,-4.32,-4.3175,-4.3119,-4.3049,-4.3028,-4.2996,-4.2986,-4.2889,-4.2872,-4.2804,-4.2762,-4.2749,-4.2763,-4.2704,-4.2657,-4.266,-4.2663,-4.2765,-4.2776,-4.2786,0,0,0,0,0,-4.3309,-4.3293,-4.3143,-4.3199,-4.3177,-4.3078,-4.3048,-4.303,-4.3003,-4.2902,-4.2883,-4.2948,-4.2806,-4.279,-4.2754,-4.2771,-4.2713,-4.2708,-4.2659,-4.2661,-4.2663,-4.2771,0,0,0,0,0,0,-4.3304,-4.3275,-4.3137,-4.3127,-4.3189,-4.3079,-4.3059,-4.3032,-4.292,-4.2901,-4.2957,-4.295,-4.2808,-4.2795,-4.2783,-4.2778,-4.272,-4.2715,-4.2712,-4.2661,-4.2663,-4.2664,0,0,0,0,0,0,-4.3283,-4.3268,-4.3132,-4.3124,-4.3113,-4.3081,-4.3063,-4.3021,-4.292,-4.298,-4.2971,-4.2955,-4.2825,-4.2799,-4.2789,-4.2726,-4.2725,-4.272,-4.2717,-4.2715,-4.2662,-4.2664,0,0,0,0,0,0,-4.3275,-4.3262,-4.3126,-4.3117,-4.3107,-4.2995,-4.3042,-4.2936,-4.2916,-4.2987,-4.2912,-4.291,-4.2831,-4.2819,-4.2794,-4.2736,-4.2729,-4.2725,-4.2722,-4.272,-4.2718,0,0,0,0,0,0,0,-4.3269,-4.3375,-4.3193,-4.3112,-4.3103,-4.3039,-4.3037,-4.3034,-4.2916,-4.2914,-4.2912,-4.2911,-4.275,-4.2745,-4.274,-4.2743,0,0,-4.2725,-4.2723,0,0,0,0,0,0,0,0,-4.3379,-4.3376,-4.3193,-4.3191,-4.3189,-4.3039,-4.3037,-4.3034,-4.2915,-4.2914,-4.2913,-4.2911,-4.2749,-4.2745,-4.2741,0,0,0,0,0,0,0,0,0,0,0,0,0,0,0,-4.3193,-4.3191,0,-4.3038,-4.3037,-4.3035,-4.2915,-4.2914,-4.2913,-4.2912,-4.2748,-4.2745,-4.2741,0,0,0,0,0,0,0,0,0,0,0,0,0,0,0,0,0,0,0,0,0,0,0,0,0,0,0,0,0,0,0,0,0,0,0,0,0,0,0,0,0,0,0,0,0,0,0,0,0,0,0,0,0,0,0,0,0,0,0,0,0,0,0,0,0,0,0,0,0]}],[{"header":{"parameterUnit":"kt","parameterCategory":2,"dx":1,"dy":1,"la1":30.253999710083008,"la2":30.299108505249023,"lo1":-89.0895004272461,"lo2":-89.04439544677734,"nx":28,"ny":28,"refTime":"2022-10-07T21:00:00:Z","depth":0,"parameterNumber":2,"parameterNumberName":"V-component_of_WINDS"},"data":[-8.1989,-8.2063,-8.2086,-8.2179,-8.2214,-8.2281,-8.2311,-8.2352,-8.2388,-8.2468,-8.2516,-8.2541,-8.2582,-8.2642,-8.2693,-8.2702,-8.2724,-8.2738,-8.2746,-8.2669,-8.2659,-8.265,-8.2637,-8.2741,-8.2741,-8.2825,-8.2826,-8.2827,-8.1941,-8.1977,-8.2032,-8.2099,-8.2146,-8.2148,-8.2199,-8.2237,-8.2295,-8.2339,-8.2386,-8.2456,-8.2511,-8.2546,-8.2602,-8.2635,-8.2637,-8.2649,-8.2648,-8.2655,-8.2572,-8.2558,-8.2647,-8.2647,-8.2647,-8.2647,-8.2647,-8.2647,-8.1858,-8.19,-8.1953,-8.2012,-8.205,-8.2094,-8.2137,-8.2167,-8.2218,-8.228,-8.229,-8.2353,-8.2397,-8.247,-8.2497,-8.2546,-8.2534,-8.2552,-8.2557,-8.2562,-8.2568,-8.2454,-8.2554,-8.2554,-8.2554,-8.2553,-8.2553,0,-8.1804,-8.182,-8.1871,-8.1931,-8.1974,-8.2019,-8.2064,-8.209,-8.2121,-8.216,-8.2218,-8.2254,-8.2323,-8.2378,-8.2431,-8.2455,-8.2456,-8.2455,-8.2468,-8.2468,-8.2464,-8.2472,-8.2341,-8.2452,-8.2451,-8.245,-8.245,-8.245,-8.1726,-8.177,-8.1832,-8.1866,-8.1895,-8.1947,-8.1981,-8.2005,-8.204,-8.2095,-8.2128,-8.2183,-8.2229,-8.2313,-8.2342,-8.2391,-8.2392,-8.2434,-8.2399,-8.2399,-8.2398,-8.2397,-8.2404,-8.2441,-8.2442,-8.2443,-8.2444,0,-8.1681,-8.1712,-8.1785,-8.1839,-8.1854,-8.1898,-8.1944,-8.1983,-8.2005,-8.2063,-8.2077,-8.211,-8.2164,-8.2185,-8.2247,-8.2257,-8.2331,-8.2328,-8.2319,-8.2321,-8.2364,-8.2361,-8.249,-8.251,-8.2397,-8.2398,-8.2399,0,-8.1627,-8.1681,-8.1725,-8.1765,-8.1828,-8.185,-8.191,-8.1935,-8.1972,-8.2017,-8.2022,-8.2063,-8.2083,-8.2127,-8.214,-8.2203,-8.2213,-8.2225,-8.2229,-8.2227,-8.2226,-8.2246,-8.2242,-8.2228,-8.2227,-8.2227,-8.2226,0,-8.1555,-8.1639,-8.1705,-8.1728,-8.1788,-8.1818,-8.1844,-8.1884,-8.1915,-8.1958,-8.1979,-8.2026,-8.2052,-8.2088,-8.2105,-8.2082,-8.218,-8.2151,-8.2193,-8.2193,-8.2215,-8.2214,-8.2322,-8.2226,-8.2225,-8.2225,-8.2225,0,-8.1516,-8.1563,-8.1651,-8.1703,-8.1723,-8.1763,-8.1815,-8.1854,-8.1895,-8.1908,-8.194,-8.1945,-8.1998,-8.1969,-8.2043,-8.2009,-8.2034,-8.2049,-8.2052,-8.206,-8.2028,-8.2091,-8.2187,-8.2201,-8.2066,-8.2065,-8.2064,0,-8.1429,-8.1524,-8.1544,-8.1625,-8.1673,-8.1678,-8.1723,-8.1759,-8.1779,-8.182,-8.184,-8.1885,-8.1866,-8.1883,-8.1917,-8.1939,-8.1984,-8.1933,-8.1993,-8.1995,-8.1988,-8.2076,-8.2088,-8.2164,-8.2047,-8.2049,-8.205,0,-8.1364,-8.1436,-8.1449,-8.1478,-8.1529,-8.1566,-8.1616,-8.1667,-8.1694,-8.173,-8.1774,-8.1833,-8.1825,-8.185,-8.1857,-8.1891,-8.1954,-8.1875,-8.1876,-8.1892,-8.2038,-8.205,-8.2062,-8.1951,-8.1953,-8.1954,-8.2036,0,-8.1307,-8.1356,-8.139,-8.1448,-8.1479,-8.1528,-8.1553,-8.1582,-8.1589,-8.1607,-8.1668,-8.1697,-8.1744,-8.176,-8.1763,-8.1833,-8.1825,-8.1812,-8.1786,-8.1842,-8.187,-8.1881,-8.1744,-8.1743,-8.1742,-8.1742,0,0,-8.1218,-8.1288,-8.1304,-8.1354,-8.1383,-8.1385,-8.1436,-8.1462,-8.1513,-8.1533,-8.1518,-8.1607,-8.163,-8.1701,-8.172,-8.1736,-8.1752,-8.1729,-8.1814,-8.1822,-8.183,-8.1859,-8.187,-8.1741,-8.1741,-8.174,-8.174,0,-8.1203,-8.123,-8.128,-8.131,-8.1353,-8.1371,-8.1383,-8.1424,-8.1438,-8.1496,-8.1494,-8.1532,-8.1598,-8.1626,-8.1648,-8.1721,-8.1717,-8.1733,-8.1769,-8.1808,-8.1816,-8.1824,-8.1855,-8.1865,-8.1739,-8.1739,-8.1739,0,-8.1146,-8.1179,-8.1205,-8.1266,-8.1293,-8.1338,-8.1318,-8.1364,-8.1397,-8.1391,-8.1448,-8.1466,-8.1501,-8.1563,-8.1591,-8.1578,-8.1686,-8.1652,-8.1656,-8.166,-8.1699,-8.1709,-8.1719,-8.1596,-8.1596,-8.1595,0,0,-8.1129,-8.1173,-8.1212,-8.1264,-8.1282,-8.1307,-8.1331,-8.1339,-8.1373,-8.1386,-8.1409,-8.1439,-8.1479,-8.1504,-8.1541,-8.1605,-8.1615,-8.1634,-8.1641,-8.1646,-8.1653,-8.1693,-8.1704,-8.1593,-8.1593,-8.1593,0,0,-8.112,-8.1169,-8.117,-8.1233,-8.1267,-8.1306,-8.1337,-8.1337,-8.1373,-8.137,-8.1381,-8.1389,-8.1447,-8.1462,-8.1433,-8.1533,-8.1506,-8.1513,-8.152,-8.1529,-8.1536,-8.1532,-8.1414,0,0,0,0,0,-8.1116,-8.1164,-8.1164,-8.1178,-8.1252,-8.1307,-8.1317,-8.1329,-8.1313,-8.1337,-8.1356,-8.1349,-8.145,-8.1424,-8.1436,-8.1469,-8.1567,-8.1571,-8.1576,-8.16,-8.1609,-8.1617,0,0,0,0,0,0,-8.1122,-8.1139,-8.1163,-8.1204,-8.1221,-8.1306,-8.128,-8.1285,-8.131,-8.1309,-8.1345,-8.135,-8.1359,-8.1419,-8.1429,-8.1461,-8.141,-8.1568,-8.1572,-8.1576,-8.1603,-8.1611,-8.1617,0,0,0,0,0,-8.1126,-8.114,-8.1256,-8.1203,-8.1218,-8.1247,-8.1278,-8.1282,-8.1302,-8.133,-8.1335,-8.1309,-8.136,-8.1369,-8.1425,-8.1456,-8.1403,-8.1407,-8.1571,-8.1574,-8.1577,-8.1607,0,0,0,0,0,0,-8.1129,-8.1143,-8.1259,-8.1264,-8.1186,-8.1242,-8.1252,-8.128,-8.1322,-8.1327,-8.1294,-8.1292,-8.1361,-8.1368,-8.1375,-8.1454,-8.1397,-8.1401,-8.1403,-8.1573,-8.1576,-8.1578,0,0,0,0,0,0,-8.1135,-8.1147,-8.1261,-8.1239,-8.1241,-8.1238,-8.1246,-8.1293,-8.1322,-8.1283,-8.1283,-8.1293,-8.1348,-8.1367,-8.1373,-8.1446,-8.1392,-8.1396,-8.1399,-8.14,-8.1575,-8.1577,0,0,0,0,0,0,-8.114,-8.115,-8.1237,-8.1239,-8.1241,-8.1296,-8.1279,-8.1353,-8.1306,-8.1281,-8.1302,-8.13,-8.1347,-8.1354,-8.1371,-8.1442,-8.1445,-8.1392,-8.1395,-8.1397,-8.1398,0,0,0,0,0,0,0,-8.1144,-8.1076,-8.1231,-8.124,-8.1241,-8.1308,-8.131,-8.1311,-8.1306,-8.1304,-8.1303,-8.1301,-8.137,-8.1374,-8.1378,-8.1438,0,0,-8.1392,-8.1394,0,0,0,0,0,0,0,0,-8.1072,-8.1075,-8.1231,-8.1232,-8.1233,-8.1308,-8.1309,-8.1311,-8.1306,-8.1304,-8.1303,-8.1302,-8.1371,-8.1375,-8.1378,0,0,0,0,0,0,0,0,0,0,0,0,0,0,0,-8.1231,-8.1232,0,-8.1309,-8.1309,-8.131,-8.1305,-8.1304,-8.1303,-8.1302,-8.1372,-8.1375,-8.1378,0,0,0,0,0,0,0,0,0,0,0,0,0,0,0,0,0,0,0,0,0,0,0,0,0,0,0,0,0,0,0,0,0,0,0,0,0,0,0,0,0,0,0,0,0,0,0,0,0,0,0,0,0,0,0,0,0,0,0,0,0,0,0,0,0,0,0,0,0]}]]]